Content
SEND FEEDBACK

Daily
Averages
Monthly
Summary
Honduras

TEGUCIGALPA, HONDURAS


Home > Central America > Honduras
Elevation: 3260 feet     Latitude: 14 03N     Longitude: 087 13W

WEATHER
 
SELECT A DAY
Number of Records: 59,258;   Date Range: 7/9/96 - 12/20/14
 
SHARE

PRINT THIS DATA

[ ← Previous Day ]
WEATHER ALMANAC - APRIL 29, 2013
[ Next Day → ]
[ °C ]   °F
Weather ElementAverageHighLow
Temperature73.5 °F83 °F (12:00 pm)67 °F (3:00 am)
Dewpoint67.9 °F69.8 °F (8:00 am)66.2 °F (1:00 am)
Humidity83.3 %100 % (2:00 am)49 % (12:00 pm)
Barometer29.97 in30.06 in (9:00 am)29.75 in (12:00 pm)
Wind Speed3.2 mph11.5 mph (1:00 pm)
Weather ElementAverage
Visibility5.3 mi
Wind DirectionESE (118.8 °)

Weather ElementTotal
Precipitation---
Cooling Degree Days10 (Base 65)
Growing Degree Days25 (Base 50)
Averaged from 28 records on April 29, 2013
WEATHER CONDITIONS BREAKOUT
WIND DIRECTION BREAKOUT
WEATHER BY HOUR - APRIL 29, 2013
[ °C ]   °F
Local TimeTemperatureDewpointHumidityBarometerVisibilityWind DirectionWind SpeedGust SpeedPrecipitationEventsConditions
12:00 AM69.8 °F68.0 °F94 %30.04 in4.3 miSouth (180°)5.8 mphRainLight Rain
1:00 AM68.0 °F66.2 °F94 %30.01 in3.1 miSouth (180°)4.6 mphRainRain
2:00 AM68.0 °F68.0 °F100 %30.01 in3.1 miCalmRainRain
3:00 AM67.0 °F67.0 °F100 %29.85 in5.0 miCalm
3:00 AM68.0 °F68.0 °F100 %30.01 in5.0 miCalmMostly Cloudy
4:00 AM68.0 °F68.0 °F100 %30.01 in5.0 miCalmLight Drizzle
5:00 AM68.0 °F68.0 °F100 %30.01 in5.0 miCalmScattered Clouds
6:00 AM67.0 °F67.0 °F100 %29.87 in4.0 miCalmMostly Cloudy
7:00 AM68.0 °F68.0 °F100 %30.04 in5.0 miCalmMostly Cloudy
8:00 AM69.8 °F69.8 °F100 %30.04 in3.7 miCalmMostly Cloudy
9:00 AM73.0 °F68.0 °F81 %29.86 in6.0 miCalmSmoke
9:00 AM73.4 °F68.0 °F83 %30.06 in5.6 miCalmMostly Cloudy
10:00 AM77.0 °F69.8 °F78 %30.04 in5.6 miSouth (180°)3.5 mphMostly Cloudy
11:00 AM80.6 °F68.0 °F65 %30.04 in5.6 miCalmMostly Cloudy
12:00 PM82.4 °F66.2 °F58 %30.01 in6.2 miEast (90°)2.3 mphMostly Cloudy
12:00 PM83.0 °F67.0 °F49 %29.75 in6.0 miEast (90°)2.3 mphSmoke
1:00 PM78.8 °F68.0 °F69 %29.98 in6.2 miSSW (200°)11.5 mphScattered Clouds
2:00 PM80.6 °F68.0 °F65 %29.95 in6.2 miSSW (200°)5.8 mphScattered Clouds
3:00 PM80.6 °F68.0 °F65 %29.95 in6.2 miSouth (170°)8.1 mphScattered Clouds
4:00 PM78.8 °F68.0 °F69 %29.95 in6.2 miSouth (190°)8.1 mphScattered Clouds
5:00 PM77.0 °F68.0 °F74 %29.95 in5.0 miSSW (210°)6.9 mphMostly Cloudy
6:00 PM75.2 °F69.8 °F83 %29.95 in6.2 miSW (220°)3.5 mphMostly Cloudy
6:00 PM75.0 °F69.0 °F76 %29.75 in6.0 miSW (220°)3.5 mphMostly Cloudy
7:00 PM73.4 °F68.0 °F83 %29.98 in5.0 miSouth (180°)5.8 mphLight Drizzle
8:00 PM73.4 °F68.0 °F83 %29.98 in5.0 miSouth (180°)6.9 mphScattered Clouds
9:00 PM71.6 °F68.0 °F88 %30.01 in6.2 miSE (140°)3.5 mphScattered Clouds
10:00 PM71.6 °F68.0 °F88 %30.04 in6.2 miSSE (160°)3.5 mphScattered Clouds
11:00 PM69.8 °F66.2 °F88 %30.04 in6.2 miSouth (180°)4.6 mphScattered Clouds
Hourly data recorded from MHTG, located miles away from Tegucigalpa, Honduras







STORIES FROM OUR PARTNERS